TimeEDT,TemperatureF,Dew PointF,Humidity,Sea Level PressureIn,VisibilityMPH,Wind Direction,Wind SpeedMPH,Gust SpeedMPH,PrecipitationIn,Events,Conditions,WindDirDegrees,DateUTC
12:53 AM,80.6,71.6,74,30.01,10.0,Calm,Calm,-,N/A,,Mostly Cloudy,0,2013-07-18 04:53:00
1:53 AM,78.8,71.6,78,30.00,10.0,East,4.6,-,N/A,,Mostly Cloudy,100,2013-07-18 05:53:00
2:53 AM,78.8,71.6,78,29.99,10.0,Calm,Calm,-,N/A,,Mostly Cloudy,0,2013-07-18 06:53:00
3:53 AM,77.0,71.6,83,29.97,10.0,Calm,Calm,-,N/A,,Clear,0,2013-07-18 07:53:00
4:53 AM,75.2,71.6,89,29.99,10.0,Calm,Calm,-,N/A,,Partly Cloudy,0,2013-07-18 08:53:00
5:53 AM,75.2,71.6,89,29.99,10.0,WNW,3.5,-,N/A,,Partly Cloudy,300,2013-07-18 09:53:00
6:53 AM,77.0,71.6,83,30.01,10.0,North,3.5,-,N/A,,Clear,10,2013-07-18 10:53:00
7:53 AM,80.6,71.6,74,30.02,10.0,NW,4.6,-,N/A,,Clear,320,2013-07-18 11:53:00
8:53 AM,84.2,71.6,66,30.03,10.0,North,13.8,19.6,N/A,,Partly Cloudy,360,2013-07-18 12:53:00
9:53 AM,86.0,69.8,58,30.03,10.0,North,12.7,-,N/A,,Partly Cloudy,350,2013-07-18 13:53:00
10:53 AM,88.0,68.0,51,30.02,10.0,NNE,8.1,-,N/A,,Partly Cloudy,30,2013-07-18 14:53:00
11:53 AM,89.6,68.0,49,30.02,10.0,WNW,5.8,-,N/A,,Partly Cloudy,300,2013-07-18 15:53:00
12:53 PM,89.6,68.0,49,30.01,10.0,Calm,Calm,-,N/A,,Partly Cloudy,0,2013-07-18 16:53:00
1:53 PM,91.4,69.8,49,29.99,10.0,NW,3.5,-,N/A,,Scattered Clouds,320,2013-07-18 17:53:00
2:53 PM,91.4,69.8,49,29.98,10.0,WSW,5.8,-,N/A,,Scattered Clouds,240,2013-07-18 18:53:00
3:53 PM,87.8,75.2,66,29.96,10.0,SSE,6.9,-,N/A,,Scattered Clouds,150,2013-07-18 19:53:00
4:53 PM,84.2,75.2,74,29.98,10.0,East,10.4,-,N/A,,Mostly Cloudy,100,2013-07-18 20:53:00
5:53 PM,78.8,73.4,83,29.96,10.0,East,9.2,-,N/A,,Scattered Clouds,80,2013-07-18 21:53:00
6:53 PM,78.8,73.4,83,29.98,10.0,SE,4.6,-,N/A,Thunderstorm,Thunderstorm,140,2013-07-18 22:53:00
7:53 PM,75.2,73.4,94,29.99,10.0,East,6.9,15.0,N/A,Rain-Thunderstorm,Light Thunderstorms and Rain,80,2013-07-18 23:53:00
8:24 PM,75.2,73.4,94,29.95,10.0,Calm,Calm,-,N/A,,Scattered Clouds,0,2013-07-19 00:24:00
8:53 PM,75.2,73.4,94,29.98,10.0,Calm,Calm,-,N/A,,Scattered Clouds,0,2013-07-19 00:53:00
9:53 PM,75.2,73.4,94,30.00,10.0,NNE,5.8,13.8,N/A,Thunderstorm,Thunderstorm,20,2013-07-19 01:53:00
10:13 PM,75.2,71.6,89,29.96,10.0,Calm,Calm,-,N/A,,Overcast,0,2013-07-19 02:13:00
10:53 PM,75.2,73.4,94,29.98,10.0,South,6.9,-,N/A,,Mostly Cloudy,170,2013-07-19 02:53:00
11:53 PM,75.2,71.6,89,29.96,10.0,WSW,6.9,-,N/A,,Mostly Cloudy,240,2013-07-19 03:53:00